Terminal Aerodrome Forecast
Issued by NWS

Home | Current Version | Previous Version | Text Only | Print | Product List | Glossary On
Versions: 1 2 3 4 5 6 7 8 9 10 11 12 13 14 15 16 17 18 19 20 21
000
FTUS42 KMLB 221200 AAC
TAFFPR
TAF AMD
KFPR 221253Z 2213/2312 00000KT 3/4SM BR VV002
     FM221400 33006KT P6SM FEW030 BKN250
     FM221800 02008KT P6SM VCSH SCT035 SCT100 BKN250
     FM230000 01005KT P6SM FEW040 SCT120 BKN250
     FM230600 36007KT P6SM BKN250=

USA.gov is the U.S. government's official web portal to all federal, state and local government web resources and services.